Flag for Brazil Weather past 2 weeks in Rio de Janeiro, Rio de Janeiro, Brazil

Now
66 °F

Clear.


Feels Like: 66 °F
Forecast: 67 / 78 °F
Wind: 5 mph from Northwest

Location: Galeao

Current Time: Sep 2, 2014 at 4:56:24 AM

Latest Report: Sep 2, 2014 at 4:00 AM


Visibility: 5 mi

Pressure: 29.95 "Hg

Humidity: 88%

Dew point: 63 °F

Location of Rio de JaneiroLocation

Historic Weather in Rio de Janeiro — Graph

°F

Rio de Janeiro temperature yesterday

Maximum temperature yesterday: 90 °F (at 1:00 PM)
Minimum temperature yesterday: 68 °F (at 3:00 AM)
Average temperature yesterday: 77 °F

Past Weeks' High & Low Weather Summary

 TemperatureHumidityPressure
High93 °F (Aug 25, 2:00 PM)100% (Aug 22, 3:00 AM)30.24 "Hg (Aug 22, 3:00 AM)
Low61 °F (Aug 25, 6:00 AM)19% (Aug 25, 2:00 PM)29.83 "Hg (Aug 25, 3:00 PM)
Average72 °F75%30.04 "Hg
* Reported Aug 18 3:00 AM — Sep 2 3:00 AM, Rio de Janeiro, Weather by CustomWeather, © 2014

Note: Actual official high and low records may vary slightly from our data, if they occured in-between our weather recording intervals... More about our weather records

Advertising

Rio de Janeiro weather history for previous 24 hours

 ConditionsComfort  
Time TempWeatherWind HumidityBarometerVisibility
3:00 AM
Sep 2
68 °FClear.7 mph83%29.95 "Hg10 mi
2:00 AM66 °FClear.5 mph88%29.95 "Hg10 mi
1:00 AM68 °FClear.5 mph83%29.95 "Hg10 mi
12:00 AM70 °FClear.6 mph78%29.95 "Hg10 mi
11:00 PM
Sep 1
72 °FClear.7 mph69%29.95 "Hg10 mi
10:00 PM72 °FClear.7 mph69%29.95 "Hg10 mi
9:00 PM73 °FClear.9 mph61%29.92 "Hg10 mi
8:00 PM73 °FClear.9 mph65%29.89 "Hg10 mi
7:00 PM77 °FClear.7 mph51%29.86 "Hg10 mi
6:00 PM79 °FClear.3 mph51%29.86 "Hg10 mi
5:00 PM82 °FClear.10 mph45%29.86 "Hg10 mi
4:00 PM84 °FSunny.12 mph43%29.83 "Hg10 mi
3:00 PM86 °FSunny.12 mph43%29.83 "Hg10 mi
2:00 PM88 °FSunny.7 mph40%29.83 "Hg10 mi
1:00 PM90 °FSunny.5 mph38%29.83 "Hg10 mi
12:00 PM86 °FSunny.7 mph46%29.86 "Hg10 mi
11:00 AM86 °FSunny.3 mph49%29.86 "Hg10 mi
10:00 AM82 °FSunny.2 mph55%29.86 "Hg10 mi
9:00 AM77 °FSunny.5 mph65%29.86 "Hg10 mi
8:00 AM77 °FSunny.2 mph65%29.89 "Hg10 mi
7:00 AM72 °FSunny.3 mph78%29.86 "Hg10 mi
6:00 AM70 °FScattered clouds.5 mph78%29.83 "HgN/A
5:00 AM70 °FPassing clouds.5 mph78%29.83 "HgN/A
4:00 AM68 °FLight rain. Passing clouds.15 mph88%29.86 "Hg6 mi
Weather by CustomWeather, © 2014

See weather overviewHow to use our weather pages